Location: G�nzburg
(48.4565°N, 10.3217°E)
Time: 11:35:09
(UTC+02:00)

ISS - Visible Passes

Search period start: 25 September 2017 00:00
Search period end: 05 October 2017 00:00
Orbit: 401 x 407 km, 51.6° (Epoch: 25 September)

Date Brightness Start Highest point End Pass type
(mag) Time Alt. Az. Time Alt. Az. Time Alt. Az.
25 Sep -1.3 21:18:53 10° SW 21:19:29 14° SW 21:19:29 14° SW visible
26 Sep -2.6 20:27:01 10° SSW 20:29:45 25° SE 20:29:49 24° SE visible
27 Sep -1.9 19:35:37 10° S 19:37:35 15° SE 19:39:34 10° E visible
27 Sep -2.9 21:10:20 10° WSW 21:12:39 42° SW 21:12:39 42° SW visible
28 Sep -3.5 20:18:07 10° SW 20:21:17 46° SSE 20:22:38 28° E visible
28 Sep -0.9 21:54:31 10° W 21:55:17 16° W 21:55:17 16° W visible
29 Sep -3.6 21:02:01 10° WSW 21:05:07 68° NW 21:05:07 68° NW visible
30 Sep -3.9 20:09:35 10° WSW 20:12:51 84° SSE 20:14:52 22° ENE visible
30 Sep -1.1 21:46:20 10° W 21:47:30 20° WNW 21:47:30 20° WNW visible
01 Oct -3.3 20:53:46 10° W 20:56:59 51° N 20:57:10 50° N visible
02 Oct -3.5 20:01:14 10° W 20:04:28 64° NNW 20:06:46 18° ENE visible
02 Oct -1.2 21:38:02 10° WNW 21:39:24 22° WNW 21:39:24 22° WNW visible
03 Oct -3.2 20:45:30 10° WNW 20:48:41 45° N 20:48:57 44° NNE visible
04 Oct -3.2 19:52:54 10° W 19:56:07 49° N 19:58:28 17° ENE visible
04 Oct -1.4 21:29:38 10° WNW 21:31:06 23° WNW 21:31:06 23° WNW visible
